Modesto, CA

10:38 PM PST on January 23, 2018 (GMT -0800)
Modesto City-County-Sham

Weather History for KMOD - November, 2012

Change the Weather History Date:

Wednesday, November 28, 2012

  Actual Average Record
Temperature  
Mean Temperature 56 °F -  
Max Temperature 61 °F 60 °F 74 °F (1932)
Min Temperature 50 °F 42 °F 1 °F (2013)
Degree Days  
Heating Degree Days 9 14  
Month to date heating degree days 257 269  
Since 1 July heating degree days 316 332  
Cooling Degree Days 0 0  
Month to date cooling degree days 1 0  
Year to date cooling degree days 1710 1696  
Growing Degree Days 6 (Base 50)    
Moisture  
Dew Point 52 °F    
Average Humidity 91    
Maximum Humidity 100    
Minimum Humidity 75    
Precipitation  
Precipitation 0.34 in 0.05 in 2.25 in (1970)
Month to date precipitation 0.86 1.25  
Year to date precipitation 7.83 10.96  
Since 1 July precipitation 0.98  
Snow  
Snow 0.00 in - 0.00 in (2002)
Month to date snowfall 0.0  
Since 1 July snowfall 0.0  
Since 1 September snowfall 0.0  
Snow Depth -    
Sea Level Pressure  
Sea Level Pressure 29.99 in    
Wind  
Wind Speed 7 mph (SE)    
Max Wind Speed 28 mph    
Max Gust Speed 38 mph    
Visibility 4 miles    
Events Rain    
T = Trace of Precipitation, MM = Missing Value Source: NWS Daily Summary

Daily Weather History Graph

Daily Weather History Graph

Search for Another Location

Airport or City:

Trip Planner

Search our weather history database for the weather conditions in past years. The results will help you decide how hot, cold, wet, or windy it might be!

Date:

Astronomy

Nov. 28, 2012 Rise Set
Actual Time 6:57 AM PST 4:46 PM PST
Civil Twilight 6:28 AM PST 5:14 PM PST
Nautical Twilight 5:56 AM PST 5:47 PM PST
Astronomical Twilight 5:25 AM PST 6:18 PM PST
Moon 5:05 PM PST (11/28) 6:59 AM PST (11/28)
Length of Visible Light 10h 45m
Length of Day
9h 48m
Full, 100% of the Moon is Illuminated
Nov 28
Full
Dec 6
Last Quarter
Dec 13
New
Dec 19
First Quarter
Dec 28
Full

Hourly Weather History & Observations

Time (PST) Temp. Dew Point Humidity Pressure Visibility Wind Dir Wind Speed Gust Speed Precip Events Conditions
12:53 AM 52.0 °F 48.9 °F 89% 30.00 in 2.0 mi ESE 5.8 mph - N/A   Clear
1:15 AM 51.8 °F 48.2 °F 88% 29.99 in 1.8 mi ESE 5.8 mph - N/A   Clear
1:49 AM 53.6 °F 50.0 °F 88% 29.97 in 2.0 mi SSE 4.6 mph - N/A   Partly Cloudy
1:53 AM 53.1 °F 50.0 °F 89% 29.97 in 2.5 mi SSE 5.8 mph - N/A   Partly Cloudy
2:53 AM 52.0 °F 48.9 °F 89% 29.95 in 1.8 mi Calm Calm - N/A   Clear
3:53 AM 51.1 °F 48.0 °F 89% 29.94 in 1.5 mi South 6.9 mph - N/A   Partly Cloudy
4:29 AM 51.8 °F 48.2 °F 88% 29.93 in 2.0 mi SSE 4.6 mph - N/A   Clear
4:53 AM 52.0 °F 48.0 °F 86% 29.92 in 2.0 mi SE 6.9 mph - N/A   Mostly Cloudy
5:53 AM 52.0 °F 46.9 °F 83% 29.93 in 2.5 mi ESE 6.9 mph - N/A   Haze
6:09 AM 51.8 °F 46.4 °F 82% 29.93 in 3.0 mi ESE 10.4 mph - N/A   Haze
6:53 AM 51.1 °F 46.9 °F 86% 29.96 in 3.0 mi SE 5.8 mph - 0.01 in Rain Light Rain
7:53 AM 51.1 °F 48.0 °F 89% 29.96 in 2.5 mi ESE 9.2 mph - 0.02 in Rain Light Rain
8:53 AM 53.1 °F 50.0 °F 89% 29.97 in 3.0 mi ESE 10.4 mph - 0.09 in Rain Light Rain
9:53 AM 53.1 °F 51.1 °F 93% 29.94 in 5.0 mi ESE 15.0 mph - 0.04 in Rain Light Rain
9:56 AM 53.6 °F 51.8 °F 94% 29.94 in 4.0 mi ESE 18.4 mph 24.2 mph 0.00 in Rain Light Rain
10:53 AM 55.0 °F 52.0 °F 89% 29.93 in 6.0 mi ESE 20.7 mph 25.3 mph 0.03 in Rain Light Rain
11:53 AM 57.0 °F 54.0 °F 89% 29.94 in 10.0 mi SE 15.0 mph 21.9 mph 0.00 in Rain Light Rain
12:53 PM 59.0 °F 51.1 °F 75% 29.95 in 10.0 mi SSE 12.7 mph 21.9 mph 0.00 in Rain Light Rain
1:53 PM 59.0 °F 52.0 °F 78% 29.96 in 3.0 mi SE 5.8 mph - 0.01 in Rain Light Rain
2:13 PM 57.2 °F 53.6 °F 88% 29.98 in 1.5 mi West 17.3 mph - 0.03 in Rain Heavy Rain
2:23 PM 59.0 °F 55.4 °F 88% 29.97 in 6.0 mi North - - 0.07 in Rain Rain
2:31 PM 60.8 °F 55.4 °F 82% 29.97 in 6.0 mi SSE 11.5 mph 23.0 mph 0.07 in Rain Light Rain
2:53 PM 61.0 °F 57.0 °F 87% 29.98 in 6.0 mi North - - 0.07 in   Mostly Cloudy
3:37 PM 57.2 °F 55.4 °F 94% 30.01 in 2.0 mi SSE 11.5 mph - 0.02 in Rain Light Rain
3:51 PM 57.2 °F 55.4 °F 94% 30.01 in 1.8 mi SSE 6.9 mph - 0.05 in Rain Light Rain
3:53 PM 57.0 °F 55.9 °F 96% 30.02 in 1.8 mi SE 8.1 mph - 0.05 in Rain Light Rain
4:27 PM 55.4 °F 55.4 °F 100% 30.04 in 4.0 mi ESE 3.5 mph - 0.03 in Rain Light Rain
4:41 PM 55.4 °F 55.4 °F 100% 30.04 in 2.5 mi SE 3.5 mph - 0.04 in Rain Light Rain
4:44 PM 55.4 °F 55.4 °F 100% 30.04 in 3.0 mi ESE 4.6 mph - 0.05 in Rain Rain
4:53 PM 55.9 °F 55.0 °F 97% 30.04 in 4.0 mi ESE 6.9 mph - 0.05 in Rain Light Rain
5:53 PM 55.9 °F 55.0 °F 97% 30.05 in 7.0 mi SE 3.5 mph - 0.01 in   Mostly Cloudy
6:53 PM 55.9 °F 55.9 °F 100% 30.06 in 9.0 mi SSW 4.6 mph - 0.03 in   Overcast
7:53 PM 55.9 °F 55.0 °F 97% 30.05 in 8.0 mi SSE 4.6 mph - N/A   Scattered Clouds
8:53 PM 55.9 °F 55.0 °F 97% 30.06 in 9.0 mi SE 6.9 mph - N/A   Mostly Cloudy
9:53 PM 55.0 °F 54.0 °F 96% 30.04 in 8.0 mi SE 9.2 mph - N/A   Clear
11:53 PM 53.1 °F 51.1 °F 93% 30.08 in 5.0 mi SE 4.6 mph - N/A   Clear